Location: Berg
(48.4333°N, 13.9167°E)
Time: 08:31:45
(UTC+00:00)

Sich 1 Rocket - Pass Details

Date: 18 September 2020
Orbit: 616 x 652 km, 82.5° (Epoch: 24 October)

Event Time Altitude Azimuth Distance (km) Brightness Sun altitude
Rises 17:43:07 0° 164° (SSE) 2,916 6.8 -6.3°
Reaches altitude 10° 17:45:28 10° 155° (SSE) 2,019 5.9 -6.7°
Maximum altitude 17:49:31 35° 91° (E) 1,046 4.2 -7.3°
Drops below altitude 10° 17:53:39 10° 26° (NNE) 2,054 6.1 -8.0°
Sets 17:56:03 0° 17° (NNE) 2,974 7.0 -8.4°
